Tacoma Narrows, WA
on Monday, December 10, 2012

Monday
Previous Day Next Day
Daily Summary
 ActualAverageRecord
Temperature
Mean Temperature °F / °C °F / °C  
Max Temperature 44°F / 7°C 45°F / 7°C 59°F / 15°C (2004)
Min Temperature 42°F / 6°C 38°F / 3°C 30°F / -1°C (2013)
Degree Days
Heating Degree Days 22    
Moisture
Dew Point 41°F / 5°C   
Average Humidity 92    
Maximum Humidity 100    
Minimum Humidity 87    
Precipitation
Precipitation 0.05 in / 1.27 cm in / cm in / cm ()
Wind
Wind Speed 2 mph / 3 km/h   
Max Wind Speed 10 mph / 16 km/h   
Max Gust Speed mph / km/h   
Visibility 5 miles / 8 kilometers   
Events     
Averages and records for this station are not official NWS values.
Key: T is trace of precipitation, MM is missing value
Source: NWS Daily Summary
Seasonal Weather Averages
Time(PST)TemperatureDew PointHumidity Pressure Visibility Wind DirectionWind SpeedGust SpeedPrecipitationEvents Conditions
12:05 AM 44.6°F / 7.0°C 42.8°F / 6.0°C 93% 30.36 in / 1028.0 hPa 3.0 miles / 4.8 kilometers Calm Calm - N/A   Overcast
12:53 AM 44.1°F / 6.7°C 42.1°F / 5.6°C 93% 30.37 in / 1028.3 hPa 5.0 miles / 8.0 kilometers NNE 3.5 mph / 5.6 km/h - N/A   Overcast
1:10 AM 44.6°F / 7.0°C 42.8°F / 6.0°C 93% 30.36 in / 1028.0 hPa 2.5 miles / 4.0 kilometers North 3.5 mph / 5.6 km/h - N/A   Overcast
1:23 AM 44.6°F / 7.0°C 42.8°F / 6.0°C 93% 30.36 in / 1028.0 hPa 3.0 miles / 4.8 kilometers Calm Calm - N/A   Overcast
1:32 AM 44.6°F / 7.0°C 42.8°F / 6.0°C 93% 30.37 in / 1028.3 hPa 2.0 miles / 3.2 kilometers Calm Calm - 0.01 in / 0.3 cm   Overcast
1:53 AM 44.1°F / 6.7°C 42.1°F / 5.6°C 93% 30.38 in / 1028.7 hPa 2.0 miles / 3.2 kilometers Calm Calm - 0.01 in / 0.3 cm   Overcast
2:23 AM 44.6°F / 7.0°C 42.8°F / 6.0°C 93% 30.38 in / 1028.7 hPa 3.0 miles / 4.8 kilometers Calm Calm - N/A   Overcast
2:53 AM 44.1°F / 6.7°C 42.1°F / 5.6°C 93% 30.41 in / 1029.8 hPa 3.0 miles / 4.8 kilometers NNE 3.5 mph / 5.6 km/h - 0.01 in / 0.3 cm   Overcast
3:53 AM 44.1°F / 6.7°C 42.1°F / 5.6°C 93% 30.41 in / 1029.7 hPa 5.0 miles / 8.0 kilometers North 3.5 mph / 5.6 km/h - N/A   Overcast
4:13 AM 42.8°F / 6.0°C 41.0°F / 5.0°C 93% 30.41 in / 1029.7 hPa 2.0 miles / 3.2 kilometers North 6.9 mph / 11.1 km/h - N/A   Overcast
4:53 AM 43.0°F / 6.1°C 42.1°F / 5.6°C 97% 30.41 in / 1029.8 hPa 3.0 miles / 4.8 kilometers Calm Calm - N/A   Overcast
5:53 AM 43.0°F / 6.1°C 41.0°F / 5.0°C 93% 30.41 in / 1029.8 hPa 4.0 miles / 6.4 kilometers Calm Calm - N/A   Overcast
6:10 AM 42.8°F / 6.0°C 41.0°F / 5.0°C 93% 30.40 in / 1029.3 hPa 1.8 miles / 2.8 kilometers NNW 3.5 mph / 5.6 km/h - N/A   Overcast
6:23 AM 42.8°F / 6.0°C 41.0°F / 5.0°C 93% 30.41 in / 1029.7 hPa 3.0 miles / 4.8 kilometers North 4.6 mph / 7.4 km/h - N/A   Overcast
6:53 AM 43.0°F / 6.1°C 41.0°F / 5.0°C 93% 30.42 in / 1030.1 hPa 4.0 miles / 6.4 kilometers NNE 3.5 mph / 5.6 km/h - N/A   Overcast
7:53 AM 42.1°F / 5.6°C 39.9°F / 4.4°C 92% 30.43 in / 1030.2 hPa 5.0 miles / 8.0 kilometers North 3.5 mph / 5.6 km/h - 0.01 in / 0.3 cm   Overcast
8:25 AM 42.8°F / 6.0°C 41.0°F / 5.0°C 93% 30.40 in / 1029.3 hPa 5.0 miles / 8.0 kilometers Calm Calm - N/A   Overcast
8:53 AM 43.0°F / 6.1°C 41.0°F / 5.0°C 93% 30.40 in / 1029.5 hPa 4.0 miles / 6.4 kilometers Calm Calm - N/A   Overcast
9:06 AM 42.8°F / 6.0°C 41.0°F / 5.0°C 93% 30.41 in / 1029.7 hPa 3.0 miles / 4.8 kilometers Calm Calm - N/A   Overcast
9:22 AM 42.8°F / 6.0°C 41.0°F / 5.0°C 93% 30.41 in / 1029.7 hPa 1.8 miles / 2.8 kilometers Calm Calm - N/A   Overcast
9:53 AM 43.0°F / 6.1°C 42.1°F / 5.6°C 97% 30.41 in / 1029.6 hPa 0.8 miles / 1.2 kilometers Calm Calm - N/A   Overcast
10:01 AM 42.8°F / 6.0°C 41.0°F / 5.0°C 93% 30.40 in / 1029.3 hPa 1.0 miles / 1.6 kilometers Calm Calm - N/A   Overcast
10:53 AM 43.0°F / 6.1°C 41.0°F / 5.0°C 93% 30.41 in / 1029.6 hPa 1.5 miles / 2.4 kilometers Calm Calm - 0.01 in / 0.3 cm   Overcast
11:12 AM 42.8°F / 6.0°C 42.8°F / 6.0°C 100% 30.41 in / 1029.7 hPa 0.8 miles / 1.2 kilometers Calm Calm - N/A   Overcast
11:53 AM 43.0°F / 6.1°C 42.1°F / 5.6°C 97% 30.40 in / 1029.5 hPa 0.8 miles / 1.2 kilometers Calm Calm - N/A   Overcast
11:56 AM 44.6°F / 7.0°C 42.8°F / 6.0°C 93% 30.40 in / 1029.3 hPa 2.0 miles / 3.2 kilometers Calm Calm - N/A   Overcast
12:02 PM 42.8°F / 6.0°C 41.0°F / 5.0°C 93% 30.39 in / 1029.0 hPa 3.0 miles / 4.8 kilometers Calm Calm - N/A   Overcast
12:19 PM 42.8°F / 6.0°C 41.0°F / 5.0°C 93% 30.39 in / 1029.0 hPa 2.0 miles / 3.2 kilometers Calm Calm - N/A   Overcast
12:53 PM 43.0°F / 6.1°C 41.0°F / 5.0°C 93% 30.39 in / 1028.9 hPa 2.0 miles / 3.2 kilometers Calm Calm - N/A   Overcast
1:53 PM 44.1°F / 6.7°C 42.1°F / 5.6°C 93% 30.36 in / 1027.9 hPa 2.0 miles / 3.2 kilometers Calm Calm - 0.01 in / 0.3 cm   Overcast
1:55 PM 44.6°F / 7.0°C 42.8°F / 6.0°C 93% 30.35 in / 1027.7 hPa 3.0 miles / 4.8 kilometers Calm Calm - N/A   Overcast
2:53 PM 44.1°F / 6.7°C 42.1°F / 5.6°C 93% 30.35 in / 1027.5 hPa 3.0 miles / 4.8 kilometers Calm Calm - N/A   Overcast
3:53 PM 44.1°F / 6.7°C 42.1°F / 5.6°C 93% 30.33 in / 1027.1 hPa 7.0 miles / 11.3 kilometers Calm Calm - N/A   Overcast
4:53 PM 44.1°F / 6.7°C 41.0°F / 5.0°C 89% 30.32 in / 1026.6 hPa 7.0 miles / 11.3 kilometers Calm Calm - N/A   Overcast
5:53 PM 44.1°F / 6.7°C 41.0°F / 5.0°C 89% 30.31 in / 1026.2 hPa 10.0 miles / 16.1 kilometers Calm Calm - N/A   Mostly Cloudy
6:53 PM 44.1°F / 6.7°C 42.1°F / 5.6°C 93% 30.28 in / 1025.3 hPa 10.0 miles / 16.1 kilometers Calm Calm - N/A   Overcast
7:53 PM 44.1°F / 6.7°C 41.0°F / 5.0°C 89% 30.25 in / 1024.2 hPa 10.0 miles / 16.1 kilometers Calm Calm - N/A   Overcast
8:32 PM 44.6°F / 7.0°C 42.8°F / 6.0°C 93% 30.22 in / 1023.2 hPa 10.0 miles / 16.1 kilometers SW 3.5 mph / 5.6 km/h - N/A   Overcast
8:53 PM 43.0°F / 6.1°C 41.0°F / 5.0°C 93% 30.22 in / 1023.2 hPa 10.0 miles / 16.1 kilometers SSW 3.5 mph / 5.6 km/h - N/A   Overcast
9:03 PM 44.6°F / 7.0°C 41.0°F / 5.0°C 87% 30.20 in / 1022.6 hPa 10.0 miles / 16.1 kilometers South 6.9 mph / 11.1 km/h - N/A   Overcast
9:29 PM 44.6°F / 7.0°C 41.0°F / 5.0°C 87% 30.19 in / 1022.2 hPa 10.0 miles / 16.1 kilometers SSW 8.1 mph / 13.0 km/h - N/A   Overcast
9:53 PM 43.0°F / 6.1°C 39.9°F / 4.4°C 89% 30.18 in / 1022.0 hPa 10.0 miles / 16.1 kilometers SSW 8.1 mph / 13.0 km/h - N/A   Overcast
10:28 PM 42.8°F / 6.0°C 41.0°F / 5.0°C 93% 30.15 in / 1020.9 hPa 10.0 miles / 16.1 kilometers South 8.1 mph / 13.0 km/h - N/A   Overcast
10:53 PM 43.0°F / 6.1°C 41.0°F / 5.0°C 93% 30.15 in / 1020.9 hPa 10.0 miles / 16.1 kilometers SSW 3.5 mph / 5.6 km/h - N/A   Overcast
11:25 PM 42.8°F / 6.0°C 39.2°F / 4.0°C 87% 30.13 in / 1020.2 hPa 10.0 miles / 16.1 kilometers SW 6.9 mph / 11.1 km/h - N/A   Scattered Clouds
11:42 PM 42.8°F / 6.0°C 39.2°F / 4.0°C 87% 30.12 in / 1019.9 hPa 10.0 miles / 16.1 kilometers SSW 6.9 mph / 11.1 km/h - N/A   Mostly Cloudy
11:51 PM 42.8°F / 6.0°C 39.2°F / 4.0°C 87% 30.12 in / 1019.9 hPa 10.0 miles / 16.1 kilometers SSW 8.1 mph / 13.0 km/h - N/A   Mostly Cloudy
11:53 PM 42.1°F / 5.6°C 39.9°F / 4.4°C 92% 30.13 in / 1020.1 hPa 10.0 miles / 16.1 kilometers SSW 10.4 mph / 16.7 km/h - N/A   Mostly Cloudy
Moon Phase
Dec. 10 Dec. 13 Dec. 20 Dec. 28 Jan. 04
Sunrise:07:46 AM (PST) Moon Rise:04:29 AM (PST)12/10
Sunset:04:20 PM (PST) Moon Set:02:19 PM (PST)12/10

Copyright © 2014 The Weather Underground, Inc.